Location: Newark
(43.6583°N, 1.6617°E)
Time: 22:28:42
(UTC+00:00)

Tiros 1 - Pass Details

Date: 25 August 2019
Orbit: 631 x 664 km, 48.4° (Epoch: 18 September)

Event Time Altitude Azimuth Distance (km) Brightness Sun altitude
Rises 05:40:10 0° 288° (WNW) 2,941 10.0 4.7°
Reaches altitude 10° 05:42:55 10° 273° (W) 2,035 9.1 5.2°
Maximum altitude 05:46:28 22° 223° (SW) 1,420 8.5 5.8°
Drops below altitude 10° 05:50:02 10° 174° (S) 2,043 9.7 6.5°
Sets 05:52:49 0° 159° (SSE) 2,956 10.7 7.0°
